Index of /20260424/WXO-DD/model_gdps/15km/12/057
Name Last modified Size Description
Parent Directory -
20260424T12Z_MSC_GDPS_AbsoluteVorticity_IsbL-0200_LatLon0.15_PT057H.grib2 2026-04-24 16:10 1.5M
20260424T12Z_MSC_GDPS_AbsoluteVorticity_IsbL-0250_LatLon0.15_PT057H.grib2 2026-04-24 16:10 1.3M
20260424T12Z_MSC_GDPS_AbsoluteVorticity_IsbL-0500_LatLon0.15_PT057H.grib2 2026-04-24 16:10 1.4M
20260424T12Z_MSC_GDPS_AbsoluteVorticity_IsbL-0700_LatLon0.15_PT057H.grib2 2026-04-24 16:10 1.3M
20260424T12Z_MSC_GDPS_AbsoluteVorticity_IsbL-0850_LatLon0.15_PT057H.grib2 2026-04-24 16:10 1.6M
20260424T12Z_MSC_GDPS_AirTemp_AGL-120m_LatLon0.15_PT057H.grib2 2026-04-24 16:10 916K
20260424T12Z_MSC_GDPS_AirTemp_AGL-2m_LatLon0.15_PT057H.grib2 2026-04-24 16:10 1.0M
20260424T12Z_MSC_GDPS_AirTemp_AGL-40m_LatLon0.15_PT057H.grib2 2026-04-24 16:10 823K
20260424T12Z_MSC_GDPS_AirTemp_AGL-80m_LatLon0.15_PT057H.grib2 2026-04-24 16:10 928K
20260424T12Z_MSC_GDPS_AirTemp_IsbL-0001_LatLon0.15_PT057H.grib2 2026-04-24 16:10 709K
20260424T12Z_MSC_GDPS_AirTemp_IsbL-0005_LatLon0.15_PT057H.grib2 2026-04-24 16:10 687K
20260424T12Z_MSC_GDPS_AirTemp_IsbL-0010_LatLon0.15_PT057H.grib2 2026-04-24 16:10 760K
20260424T12Z_MSC_GDPS_AirTemp_IsbL-0020_LatLon0.15_PT057H.grib2 2026-04-24 16:10 700K
20260424T12Z_MSC_GDPS_AirTemp_IsbL-0030_LatLon0.15_PT057H.grib2 2026-04-24 16:10 752K
20260424T12Z_MSC_GDPS_AirTemp_IsbL-0050_LatLon0.15_PT057H.grib2 2026-04-24 16:10 810K
20260424T12Z_MSC_GDPS_AirTemp_IsbL-0100_LatLon0.15_PT057H.grib2 2026-04-24 16:10 943K
20260424T12Z_MSC_GDPS_AirTemp_IsbL-0150_LatLon0.15_PT057H.grib2 2026-04-24 16:10 963K
20260424T12Z_MSC_GDPS_AirTemp_IsbL-0175_LatLon0.15_PT057H.grib2 2026-04-24 16:10 951K
20260424T12Z_MSC_GDPS_AirTemp_IsbL-0200_LatLon0.15_PT057H.grib2 2026-04-24 16:10 971K
20260424T12Z_MSC_GDPS_AirTemp_IsbL-0225_LatLon0.15_PT057H.grib2 2026-04-24 16:10 1.0M
20260424T12Z_MSC_GDPS_AirTemp_IsbL-0250_LatLon0.15_PT057H.grib2 2026-04-24 16:10 1.0M
20260424T12Z_MSC_GDPS_AirTemp_IsbL-0275_LatLon0.15_PT057H.grib2 2026-04-24 16:10 1.0M
20260424T12Z_MSC_GDPS_AirTemp_IsbL-0300_LatLon0.15_PT057H.grib2 2026-04-24 16:10 1.0M
20260424T12Z_MSC_GDPS_AirTemp_IsbL-0350_LatLon0.15_PT057H.grib2 2026-04-24 16:10 925K
20260424T12Z_MSC_GDPS_AirTemp_IsbL-0400_LatLon0.15_PT057H.grib2 2026-04-24 16:10 934K
20260424T12Z_MSC_GDPS_AirTemp_IsbL-0450_LatLon0.15_PT057H.grib2 2026-04-24 16:10 958K
20260424T12Z_MSC_GDPS_AirTemp_IsbL-0500_LatLon0.15_PT057H.grib2 2026-04-24 16:10 1.0M
20260424T12Z_MSC_GDPS_AirTemp_IsbL-0550_LatLon0.15_PT057H.grib2 2026-04-24 16:10 805K
20260424T12Z_MSC_GDPS_AirTemp_IsbL-0600_LatLon0.15_PT057H.grib2 2026-04-24 16:10 893K
20260424T12Z_MSC_GDPS_AirTemp_IsbL-0650_LatLon0.15_PT057H.grib2 2026-04-24 16:10 920K
20260424T12Z_MSC_GDPS_AirTemp_IsbL-0700_LatLon0.15_PT057H.grib2 2026-04-24 16:10 954K
20260424T12Z_MSC_GDPS_AirTemp_IsbL-0750_LatLon0.15_PT057H.grib2 2026-04-24 16:10 1.0M
20260424T12Z_MSC_GDPS_AirTemp_IsbL-0800_LatLon0.15_PT057H.grib2 2026-04-24 16:10 1.1M
20260424T12Z_MSC_GDPS_AirTemp_IsbL-0850_LatLon0.15_PT057H.grib2 2026-04-24 16:10 1.1M
20260424T12Z_MSC_GDPS_AirTemp_IsbL-0875_LatLon0.15_PT057H.grib2 2026-04-24 16:10 1.1M
20260424T12Z_MSC_GDPS_AirTemp_IsbL-0900_LatLon0.15_PT057H.grib2 2026-04-24 16:10 1.1M
20260424T12Z_MSC_GDPS_AirTemp_IsbL-0925_LatLon0.15_PT057H.grib2 2026-04-24 16:10 1.1M
20260424T12Z_MSC_GDPS_AirTemp_IsbL-0950_LatLon0.15_PT057H.grib2 2026-04-24 16:10 1.2M
20260424T12Z_MSC_GDPS_AirTemp_IsbL-0970_LatLon0.15_PT057H.grib2 2026-04-24 16:10 1.2M
20260424T12Z_MSC_GDPS_AirTemp_IsbL-0985_LatLon0.15_PT057H.grib2 2026-04-24 16:10 1.2M
20260424T12Z_MSC_GDPS_AirTemp_IsbL-1000_LatLon0.15_PT057H.grib2 2026-04-24 16:10 1.1M
20260424T12Z_MSC_GDPS_AirTemp_IsbL-1015_LatLon0.15_PT057H.grib2 2026-04-24 16:10 1.1M
20260424T12Z_MSC_GDPS_Albedo_Sfc_LatLon0.15_PT057H.grib2 2026-04-24 16:10 245K
20260424T12Z_MSC_GDPS_CAPE_Sfc_LatLon0.15_PT057H.grib2 2026-04-24 16:10 3.9M
20260424T12Z_MSC_GDPS_CIN_Sfc_LatLon0.15_PT057H.grib2 2026-04-24 16:10 2.9M
20260424T12Z_MSC_GDPS_CloudWater_EAtm_LatLon0.15_PT057H.grib2 2026-04-24 16:10 538K
20260424T12Z_MSC_GDPS_ConvectivePrecip-Accum_Sfc_LatLon0.15_PT057H.grib2 2026-04-24 16:10 3.1M
20260424T12Z_MSC_GDPS_DewPointDepression_AGL-2m_LatLon0.15_PT057H.grib2 2026-04-24 16:10 760K
20260424T12Z_MSC_GDPS_DewPointDepression_IsbL-0010_LatLon0.15_PT057H.grib2 2026-04-24 16:10 39K
20260424T12Z_MSC_GDPS_DewPointDepression_IsbL-0020_LatLon0.15_PT057H.grib2 2026-04-24 16:10 76K
20260424T12Z_MSC_GDPS_DewPointDepression_IsbL-0030_LatLon0.15_PT057H.grib2 2026-04-24 16:10 61K
20260424T12Z_MSC_GDPS_DewPointDepression_IsbL-0050_LatLon0.15_PT057H.grib2 2026-04-24 16:10 363K
20260424T12Z_MSC_GDPS_DewPointDepression_IsbL-0100_LatLon0.15_PT057H.grib2 2026-04-24 16:10 400K
20260424T12Z_MSC_GDPS_DewPointDepression_IsbL-0150_LatLon0.15_PT057H.grib2 2026-04-24 16:10 453K
20260424T12Z_MSC_GDPS_DewPointDepression_IsbL-0175_LatLon0.15_PT057H.grib2 2026-04-24 16:10 552K
20260424T12Z_MSC_GDPS_DewPointDepression_IsbL-0200_LatLon0.15_PT057H.grib2 2026-04-24 16:10 658K
20260424T12Z_MSC_GDPS_DewPointDepression_IsbL-0225_LatLon0.15_PT057H.grib2 2026-04-24 16:10 764K
20260424T12Z_MSC_GDPS_DewPointDepression_IsbL-0250_LatLon0.15_PT057H.grib2 2026-04-24 16:10 865K
20260424T12Z_MSC_GDPS_DewPointDepression_IsbL-0275_LatLon0.15_PT057H.grib2 2026-04-24 16:10 886K
20260424T12Z_MSC_GDPS_DewPointDepression_IsbL-0300_LatLon0.15_PT057H.grib2 2026-04-24 16:10 930K
20260424T12Z_MSC_GDPS_DewPointDepression_IsbL-0350_LatLon0.15_PT057H.grib2 2026-04-24 16:10 956K
20260424T12Z_MSC_GDPS_DewPointDepression_IsbL-0400_LatLon0.15_PT057H.grib2 2026-04-24 16:10 1.0M
20260424T12Z_MSC_GDPS_DewPointDepression_IsbL-0450_LatLon0.15_PT057H.grib2 2026-04-24 16:10 1.0M
20260424T12Z_MSC_GDPS_DewPointDepression_IsbL-0500_LatLon0.15_PT057H.grib2 2026-04-24 16:10 1.0M
20260424T12Z_MSC_GDPS_DewPointDepression_IsbL-0550_LatLon0.15_PT057H.grib2 2026-04-24 16:10 1.0M
20260424T12Z_MSC_GDPS_DewPointDepression_IsbL-0600_LatLon0.15_PT057H.grib2 2026-04-24 16:10 1.1M
20260424T12Z_MSC_GDPS_DewPointDepression_IsbL-0650_LatLon0.15_PT057H.grib2 2026-04-24 16:10 1.1M
20260424T12Z_MSC_GDPS_DewPointDepression_IsbL-0700_LatLon0.15_PT057H.grib2 2026-04-24 16:10 1.1M
20260424T12Z_MSC_GDPS_DewPointDepression_IsbL-0750_LatLon0.15_PT057H.grib2 2026-04-24 16:10 1.1M
20260424T12Z_MSC_GDPS_DewPointDepression_IsbL-0800_LatLon0.15_PT057H.grib2 2026-04-24 16:10 1.2M
20260424T12Z_MSC_GDPS_DewPointDepression_IsbL-0850_LatLon0.15_PT057H.grib2 2026-04-24 16:10 1.2M
20260424T12Z_MSC_GDPS_DewPointDepression_IsbL-0875_LatLon0.15_PT057H.grib2 2026-04-24 16:10 1.1M
20260424T12Z_MSC_GDPS_DewPointDepression_IsbL-0900_LatLon0.15_PT057H.grib2 2026-04-24 16:10 1.1M
20260424T12Z_MSC_GDPS_DewPointDepression_IsbL-0925_LatLon0.15_PT057H.grib2 2026-04-24 16:10 1.0M
20260424T12Z_MSC_GDPS_DewPointDepression_IsbL-0950_LatLon0.15_PT057H.grib2 2026-04-24 16:10 1.0M
20260424T12Z_MSC_GDPS_DewPointDepression_IsbL-0970_LatLon0.15_PT057H.grib2 2026-04-24 16:10 1.0M
20260424T12Z_MSC_GDPS_DewPointDepression_IsbL-0985_LatLon0.15_PT057H.grib2 2026-04-24 16:10 1.0M
20260424T12Z_MSC_GDPS_DewPointDepression_IsbL-1000_LatLon0.15_PT057H.grib2 2026-04-24 16:10 1.0M
20260424T12Z_MSC_GDPS_DewPointDepression_IsbL-1015_LatLon0.15_PT057H.grib2 2026-04-24 16:10 919K
20260424T12Z_MSC_GDPS_DewPoint_AGL-2m_LatLon0.15_PT057H.grib2 2026-04-24 16:10 607K
20260424T12Z_MSC_GDPS_DownwardLongwaveRadiationFlux-Accum_Sfc_LatLon0.15_PT057H.grib2 2026-04-24 16:10 858K
20260424T12Z_MSC_GDPS_DownwardShortwaveRadiationFlux-Accum_NTAtm_LatLon0.15_PT057H.grib2 2026-04-24 16:10 214K
20260424T12Z_MSC_GDPS_DownwardShortwaveRadiationFlux-Accum_Sfc_LatLon0.15_PT057H.grib2 2026-04-24 16:10 1.1M
20260424T12Z_MSC_GDPS_FreezingRain-Accum1h_Sfc_LatLon0.15_PT057H.grib2 2026-04-24 16:10 42K
20260424T12Z_MSC_GDPS_FreezingRain-Accum3h_Sfc_LatLon0.15_PT057H.grib2 2026-04-24 16:10 55K
20260424T12Z_MSC_GDPS_FreezingRain-Accum_Sfc_LatLon0.15_PT057H.grib2 2026-04-24 16:10 319K
20260424T12Z_MSC_GDPS_GeopotentialHeight_IsbL-0001_LatLon0.15_PT057H.grib2 2026-04-24 16:10 393K
20260424T12Z_MSC_GDPS_GeopotentialHeight_IsbL-0005_LatLon0.15_PT057H.grib2 2026-04-24 16:10 503K
20260424T12Z_MSC_GDPS_GeopotentialHeight_IsbL-0010_LatLon0.15_PT057H.grib2 2026-04-24 16:10 482K
20260424T12Z_MSC_GDPS_GeopotentialHeight_IsbL-0020_LatLon0.15_PT057H.grib2 2026-04-24 16:10 422K
20260424T12Z_MSC_GDPS_GeopotentialHeight_IsbL-0030_LatLon0.15_PT057H.grib2 2026-04-24 16:10 578K
20260424T12Z_MSC_GDPS_GeopotentialHeight_IsbL-0050_LatLon0.15_PT057H.grib2 2026-04-24 16:10 575K
20260424T12Z_MSC_GDPS_GeopotentialHeight_IsbL-0100_LatLon0.15_PT057H.grib2 2026-04-24 16:10 605K
20260424T12Z_MSC_GDPS_GeopotentialHeight_IsbL-0150_LatLon0.15_PT057H.grib2 2026-04-24 16:10 623K
20260424T12Z_MSC_GDPS_GeopotentialHeight_IsbL-0175_LatLon0.15_PT057H.grib2 2026-04-24 16:10 627K
20260424T12Z_MSC_GDPS_GeopotentialHeight_IsbL-0200_LatLon0.15_PT057H.grib2 2026-04-24 16:10 631K
20260424T12Z_MSC_GDPS_GeopotentialHeight_IsbL-0225_LatLon0.15_PT057H.grib2 2026-04-24 16:10 635K
20260424T12Z_MSC_GDPS_GeopotentialHeight_IsbL-0250_LatLon0.15_PT057H.grib2 2026-04-24 16:10 641K
20260424T12Z_MSC_GDPS_GeopotentialHeight_IsbL-0275_LatLon0.15_PT057H.grib2 2026-04-24 16:10 643K
20260424T12Z_MSC_GDPS_GeopotentialHeight_IsbL-0300_LatLon0.15_PT057H.grib2 2026-04-24 16:10 637K
20260424T12Z_MSC_GDPS_GeopotentialHeight_IsbL-0350_LatLon0.15_PT057H.grib2 2026-04-24 16:10 634K
20260424T12Z_MSC_GDPS_GeopotentialHeight_IsbL-0400_LatLon0.15_PT057H.grib2 2026-04-24 16:10 624K
20260424T12Z_MSC_GDPS_GeopotentialHeight_IsbL-0450_LatLon0.15_PT057H.grib2 2026-04-24 16:10 613K
20260424T12Z_MSC_GDPS_GeopotentialHeight_IsbL-0500_LatLon0.15_PT057H.grib2 2026-04-24 16:10 603K
20260424T12Z_MSC_GDPS_GeopotentialHeight_IsbL-0550_LatLon0.15_PT057H.grib2 2026-04-24 16:10 528K
20260424T12Z_MSC_GDPS_GeopotentialHeight_IsbL-0600_LatLon0.15_PT057H.grib2 2026-04-24 16:10 521K
20260424T12Z_MSC_GDPS_GeopotentialHeight_IsbL-0650_LatLon0.15_PT057H.grib2 2026-04-24 16:10 519K
20260424T12Z_MSC_GDPS_GeopotentialHeight_IsbL-0700_LatLon0.15_PT057H.grib2 2026-04-24 16:10 689K
20260424T12Z_MSC_GDPS_GeopotentialHeight_IsbL-0750_LatLon0.15_PT057H.grib2 2026-04-24 16:10 690K
20260424T12Z_MSC_GDPS_GeopotentialHeight_IsbL-0800_LatLon0.15_PT057H.grib2 2026-04-24 16:10 705K
20260424T12Z_MSC_GDPS_GeopotentialHeight_IsbL-0850_LatLon0.15_PT057H.grib2 2026-04-24 16:10 710K
20260424T12Z_MSC_GDPS_GeopotentialHeight_IsbL-0875_LatLon0.15_PT057H.grib2 2026-04-24 16:10 714K
20260424T12Z_MSC_GDPS_GeopotentialHeight_IsbL-0900_LatLon0.15_PT057H.grib2 2026-04-24 16:10 724K
20260424T12Z_MSC_GDPS_GeopotentialHeight_IsbL-0925_LatLon0.15_PT057H.grib2 2026-04-24 16:10 731K
20260424T12Z_MSC_GDPS_GeopotentialHeight_IsbL-0950_LatLon0.15_PT057H.grib2 2026-04-24 16:10 737K
20260424T12Z_MSC_GDPS_GeopotentialHeight_IsbL-0970_LatLon0.15_PT057H.grib2 2026-04-24 16:10 751K
20260424T12Z_MSC_GDPS_GeopotentialHeight_IsbL-0985_LatLon0.15_PT057H.grib2 2026-04-24 16:10 768K
20260424T12Z_MSC_GDPS_GeopotentialHeight_IsbL-1000_LatLon0.15_PT057H.grib2 2026-04-24 16:10 791K
20260424T12Z_MSC_GDPS_GeopotentialHeight_IsbL-1015_LatLon0.15_PT057H.grib2 2026-04-24 16:10 814K
20260424T12Z_MSC_GDPS_Humidex_Sfc_LatLon0.15_PT057H.grib2 2026-04-24 16:10 5.3M
20260424T12Z_MSC_GDPS_IcePellets-Accum1h_Sfc_LatLon0.15_PT057H.grib2 2026-04-24 16:10 13K
20260424T12Z_MSC_GDPS_IcePellets-Accum3h_Sfc_LatLon0.15_PT057H.grib2 2026-04-24 16:10 16K
20260424T12Z_MSC_GDPS_IcePellets-Accum_Sfc_LatLon0.15_PT057H.grib2 2026-04-24 16:10 104K
20260424T12Z_MSC_GDPS_KIndex_Sfc_LatLon0.15_PT057H.grib2 2026-04-24 16:10 6.4M
20260424T12Z_MSC_GDPS_LatentHeatNetFlux_Sfc_LatLon0.15_PT057H.grib2 2026-04-24 16:10 670K
20260424T12Z_MSC_GDPS_LiftedIndex-MU-VT_IsbL-0500_LatLon0.15_PT057H.grib2 2026-04-24 16:10 5.4M
20260424T12Z_MSC_GDPS_NetLongwaveRadiationFlux-Accum_Sfc_LatLon0.15_PT057H.grib2 2026-04-24 16:10 1.2M
20260424T12Z_MSC_GDPS_NetShortwaveRadiationFlux-Accum_Sfc_LatLon0.15_PT057H.grib2 2026-04-24 16:10 1.0M
20260424T12Z_MSC_GDPS_O3MixingRatio_LatLon0.15_PT057H.grib2 2026-04-24 16:49 2.3M
20260424T12Z_MSC_GDPS_O3_EAtm_LatLon0.15_PT057H.grib2 2026-04-24 16:49 2.5M
20260424T12Z_MSC_GDPS_PlanetaryBoundaryLayerHeight_Sfc_LatLon0.15_PT057H.grib2 2026-04-24 16:10 2.4M
20260424T12Z_MSC_GDPS_Precip-Accum1h_Sfc_LatLon0.15_PT057H.grib2 2026-04-24 16:10 3.3M
20260424T12Z_MSC_GDPS_Precip-Accum3h_Sfc_LatLon0.15_PT057H.grib2 2026-04-24 16:10 3.6M
20260424T12Z_MSC_GDPS_Precip-Accum_Sfc_LatLon0.15_PT057H.grib2 2026-04-24 16:10 4.7M
20260424T12Z_MSC_GDPS_PrecipRate_Sfc_LatLon0.15_PT057H.grib2 2026-04-24 16:10 3.0M
20260424T12Z_MSC_GDPS_PrecipType-Instant_Sfc_LatLon0.15_PT057H.grib2 2026-04-24 16:10 1.6M
20260424T12Z_MSC_GDPS_Pressure_MSL_LatLon0.15_PT057H.grib2 2026-04-24 16:10 725K
20260424T12Z_MSC_GDPS_Pressure_PVU-1.5_LatLon0.15_PT057H.grib2 2026-04-24 16:10 5.8M
20260424T12Z_MSC_GDPS_Pressure_PVU-1_LatLon0.15_PT057H.grib2 2026-04-24 16:10 6.0M
20260424T12Z_MSC_GDPS_Pressure_PVU-2_LatLon0.15_PT057H.grib2 2026-04-24 16:10 5.6M
20260424T12Z_MSC_GDPS_Pressure_Sfc_LatLon0.15_PT057H.grib2 2026-04-24 16:10 1.1M
20260424T12Z_MSC_GDPS_RadiativeTemp_Sfc_LatLon0.15_PT057H.grib2 2026-04-24 16:10 663K
20260424T12Z_MSC_GDPS_Rain-Accum1h_Sfc_LatLon0.15_PT057H.grib2 2026-04-24 16:10 1.7M
20260424T12Z_MSC_GDPS_Rain-Accum3h_Sfc_LatLon0.15_PT057H.grib2 2026-04-24 16:10 1.7M
20260424T12Z_MSC_GDPS_Rain-Accum_Sfc_LatLon0.15_PT057H.grib2 2026-04-24 16:10 3.5M
20260424T12Z_MSC_GDPS_RelativeHumidity_AGL-2m_LatLon0.15_PT057H.grib2 2026-04-24 16:10 1.1M
20260424T12Z_MSC_GDPS_RelativeHumidity_IsbL-0010_LatLon0.15_PT057H.grib2 2026-04-24 16:10 268K
20260424T12Z_MSC_GDPS_RelativeHumidity_IsbL-0020_LatLon0.15_PT057H.grib2 2026-04-24 16:10 281K
20260424T12Z_MSC_GDPS_RelativeHumidity_IsbL-0030_LatLon0.15_PT057H.grib2 2026-04-24 16:10 347K
20260424T12Z_MSC_GDPS_RelativeHumidity_IsbL-0050_LatLon0.15_PT057H.grib2 2026-04-24 16:10 420K
20260424T12Z_MSC_GDPS_RelativeHumidity_IsbL-0100_LatLon0.15_PT057H.grib2 2026-04-24 16:10 502K
20260424T12Z_MSC_GDPS_RelativeHumidity_IsbL-0150_LatLon0.15_PT057H.grib2 2026-04-24 16:10 643K
20260424T12Z_MSC_GDPS_RelativeHumidity_IsbL-0175_LatLon0.15_PT057H.grib2 2026-04-24 16:10 768K
20260424T12Z_MSC_GDPS_RelativeHumidity_IsbL-0200_LatLon0.15_PT057H.grib2 2026-04-24 16:10 697K
20260424T12Z_MSC_GDPS_RelativeHumidity_IsbL-0225_LatLon0.15_PT057H.grib2 2026-04-24 16:10 785K
20260424T12Z_MSC_GDPS_RelativeHumidity_IsbL-0250_LatLon0.15_PT057H.grib2 2026-04-24 16:10 869K
20260424T12Z_MSC_GDPS_RelativeHumidity_IsbL-0275_LatLon0.15_PT057H.grib2 2026-04-24 16:10 892K
20260424T12Z_MSC_GDPS_RelativeHumidity_IsbL-0300_LatLon0.15_PT057H.grib2 2026-04-24 16:10 937K
20260424T12Z_MSC_GDPS_RelativeHumidity_IsbL-0350_LatLon0.15_PT057H.grib2 2026-04-24 16:10 959K
20260424T12Z_MSC_GDPS_RelativeHumidity_IsbL-0400_LatLon0.15_PT057H.grib2 2026-04-24 16:10 1.0M
20260424T12Z_MSC_GDPS_RelativeHumidity_IsbL-0450_LatLon0.15_PT057H.grib2 2026-04-24 16:10 1.0M
20260424T12Z_MSC_GDPS_RelativeHumidity_IsbL-0500_LatLon0.15_PT057H.grib2 2026-04-24 16:10 1.0M
20260424T12Z_MSC_GDPS_RelativeHumidity_IsbL-0550_LatLon0.15_PT057H.grib2 2026-04-24 16:10 1.1M
20260424T12Z_MSC_GDPS_RelativeHumidity_IsbL-0600_LatLon0.15_PT057H.grib2 2026-04-24 16:10 1.1M
20260424T12Z_MSC_GDPS_RelativeHumidity_IsbL-0650_LatLon0.15_PT057H.grib2 2026-04-24 16:10 1.1M
20260424T12Z_MSC_GDPS_RelativeHumidity_IsbL-0700_LatLon0.15_PT057H.grib2 2026-04-24 16:10 1.2M
20260424T12Z_MSC_GDPS_RelativeHumidity_IsbL-0750_LatLon0.15_PT057H.grib2 2026-04-24 16:10 1.2M
20260424T12Z_MSC_GDPS_RelativeHumidity_IsbL-0800_LatLon0.15_PT057H.grib2 2026-04-24 16:10 1.3M
20260424T12Z_MSC_GDPS_RelativeHumidity_IsbL-0850_LatLon0.15_PT057H.grib2 2026-04-24 16:10 1.3M
20260424T12Z_MSC_GDPS_RelativeHumidity_IsbL-0875_LatLon0.15_PT057H.grib2 2026-04-24 16:10 1.3M
20260424T12Z_MSC_GDPS_RelativeHumidity_IsbL-0900_LatLon0.15_PT057H.grib2 2026-04-24 16:10 1.2M
20260424T12Z_MSC_GDPS_RelativeHumidity_IsbL-0925_LatLon0.15_PT057H.grib2 2026-04-24 16:10 1.2M
20260424T12Z_MSC_GDPS_RelativeHumidity_IsbL-0950_LatLon0.15_PT057H.grib2 2026-04-24 16:10 1.2M
20260424T12Z_MSC_GDPS_RelativeHumidity_IsbL-0970_LatLon0.15_PT057H.grib2 2026-04-24 16:10 1.2M
20260424T12Z_MSC_GDPS_RelativeHumidity_IsbL-0985_LatLon0.15_PT057H.grib2 2026-04-24 16:10 1.2M
20260424T12Z_MSC_GDPS_RelativeHumidity_IsbL-1000_LatLon0.15_PT057H.grib2 2026-04-24 16:10 1.1M
20260424T12Z_MSC_GDPS_RelativeHumidity_IsbL-1015_LatLon0.15_PT057H.grib2 2026-04-24 16:10 1.1M
20260424T12Z_MSC_GDPS_RelativeVorticity_IsbL-0200_LatLon0.15_PT057H.grib2 2026-04-24 16:10 1.5M
20260424T12Z_MSC_GDPS_RelativeVorticity_IsbL-0250_LatLon0.15_PT057H.grib2 2026-04-24 16:10 1.6M
20260424T12Z_MSC_GDPS_RelativeVorticity_IsbL-0500_LatLon0.15_PT057H.grib2 2026-04-24 16:10 1.4M
20260424T12Z_MSC_GDPS_RelativeVorticity_IsbL-0700_LatLon0.15_PT057H.grib2 2026-04-24 16:10 1.6M
20260424T12Z_MSC_GDPS_RelativeVorticity_IsbL-0850_LatLon0.15_PT057H.grib2 2026-04-24 16:10 1.6M
20260424T12Z_MSC_GDPS_Runoff-Accum_Sfc_LatLon0.15_PT057H.grib2 2026-04-24 16:10 127K
20260424T12Z_MSC_GDPS_SensibleHeatNetFlux_Sfc_LatLon0.15_PT057H.grib2 2026-04-24 16:10 610K
20260424T12Z_MSC_GDPS_ShowalterIndex_IsbL-0500_LatLon0.15_PT057H.grib2 2026-04-24 16:10 6.2M
20260424T12Z_MSC_GDPS_Snow-Accum1h_Sfc_LatLon0.15_PT057H.grib2 2026-04-24 16:10 1.1M
20260424T12Z_MSC_GDPS_Snow-Accum3h_Sfc_LatLon0.15_PT057H.grib2 2026-04-24 16:10 1.1M
20260424T12Z_MSC_GDPS_Snow-Accum_Sfc_LatLon0.15_PT057H.grib2 2026-04-24 16:10 2.1M
20260424T12Z_MSC_GDPS_SnowDensity_Sfc_LatLon0.15_PT057H.grib2 2026-04-24 16:10 269K
20260424T12Z_MSC_GDPS_SnowDepth_Sfc_LatLon0.15_PT057H.grib2 2026-04-24 16:10 1.8M
20260424T12Z_MSC_GDPS_SoilTemp_DBS-0to10cm_LatLon0.15_PT057H.grib2 2026-04-24 16:10 507K
20260424T12Z_MSC_GDPS_SoilTemp_Sfc_LatLon0.15_PT057H.grib2 2026-04-24 16:10 579K
20260424T12Z_MSC_GDPS_SoilVolumetricIceContent_Sfc_LatLon0.15_PT057H.grib2 2026-04-24 16:10 214K
20260424T12Z_MSC_GDPS_SoilVolumetricWaterContent_DBS-0to10cm_LatLon0.15_PT057H.grib2 2026-04-24 16:10 568K
20260424T12Z_MSC_GDPS_SoilVolumetricWaterContent_DBS-0to1cm_LatLon0.15_PT057H.grib2 2026-04-24 16:10 652K
20260424T12Z_MSC_GDPS_SpecificHumidity_AGL-120m_LatLon0.15_PT057H.grib2 2026-04-24 16:10 1.1M
20260424T12Z_MSC_GDPS_SpecificHumidity_AGL-2m_LatLon0.15_PT057H.grib2 2026-04-24 16:10 1.2M
20260424T12Z_MSC_GDPS_SpecificHumidity_AGL-40m_LatLon0.15_PT057H.grib2 2026-04-24 16:10 1.1M
20260424T12Z_MSC_GDPS_SpecificHumidity_AGL-80m_LatLon0.15_PT057H.grib2 2026-04-24 16:10 1.1M
20260424T12Z_MSC_GDPS_SpecificHumidity_IsbL-0001_LatLon0.15_PT057H.grib2 2026-04-24 16:10 1.3M
20260424T12Z_MSC_GDPS_SpecificHumidity_IsbL-0005_LatLon0.15_PT057H.grib2 2026-04-24 16:10 1.2M
20260424T12Z_MSC_GDPS_SpecificHumidity_IsbL-0010_LatLon0.15_PT057H.grib2 2026-04-24 16:10 1.3M
20260424T12Z_MSC_GDPS_SpecificHumidity_IsbL-0020_LatLon0.15_PT057H.grib2 2026-04-24 16:10 1.4M
20260424T12Z_MSC_GDPS_SpecificHumidity_IsbL-0030_LatLon0.15_PT057H.grib2 2026-04-24 16:10 1.7M
20260424T12Z_MSC_GDPS_SpecificHumidity_IsbL-0050_LatLon0.15_PT057H.grib2 2026-04-24 16:10 1.4M
20260424T12Z_MSC_GDPS_SpecificHumidity_IsbL-0100_LatLon0.15_PT057H.grib2 2026-04-24 16:10 1.4M
20260424T12Z_MSC_GDPS_SpecificHumidity_IsbL-0150_LatLon0.15_PT057H.grib2 2026-04-24 16:10 1.3M
20260424T12Z_MSC_GDPS_SpecificHumidity_IsbL-0175_LatLon0.15_PT057H.grib2 2026-04-24 16:10 1.3M
20260424T12Z_MSC_GDPS_SpecificHumidity_IsbL-0200_LatLon0.15_PT057H.grib2 2026-04-24 16:10 1.3M
20260424T12Z_MSC_GDPS_SpecificHumidity_IsbL-0225_LatLon0.15_PT057H.grib2 2026-04-24 16:10 1.3M
20260424T12Z_MSC_GDPS_SpecificHumidity_IsbL-0250_LatLon0.15_PT057H.grib2 2026-04-24 16:10 1.4M
20260424T12Z_MSC_GDPS_SpecificHumidity_IsbL-0275_LatLon0.15_PT057H.grib2 2026-04-24 16:10 1.3M
20260424T12Z_MSC_GDPS_SpecificHumidity_IsbL-0300_LatLon0.15_PT057H.grib2 2026-04-24 16:10 1.5M
20260424T12Z_MSC_GDPS_SpecificHumidity_IsbL-0350_LatLon0.15_PT057H.grib2 2026-04-24 16:10 1.5M
20260424T12Z_MSC_GDPS_SpecificHumidity_IsbL-0400_LatLon0.15_PT057H.grib2 2026-04-24 16:10 1.5M
20260424T12Z_MSC_GDPS_SpecificHumidity_IsbL-0450_LatLon0.15_PT057H.grib2 2026-04-24 16:10 1.6M
20260424T12Z_MSC_GDPS_SpecificHumidity_IsbL-0500_LatLon0.15_PT057H.grib2 2026-04-24 16:10 1.4M
20260424T12Z_MSC_GDPS_SpecificHumidity_IsbL-0550_LatLon0.15_PT057H.grib2 2026-04-24 16:10 1.6M
20260424T12Z_MSC_GDPS_SpecificHumidity_IsbL-0600_LatLon0.15_PT057H.grib2 2026-04-24 16:10 1.7M
20260424T12Z_MSC_GDPS_SpecificHumidity_IsbL-0650_LatLon0.15_PT057H.grib2 2026-04-24 16:10 1.5M
20260424T12Z_MSC_GDPS_SpecificHumidity_IsbL-0700_LatLon0.15_PT057H.grib2 2026-04-24 16:10 1.6M
20260424T12Z_MSC_GDPS_SpecificHumidity_IsbL-0750_LatLon0.15_PT057H.grib2 2026-04-24 16:10 1.7M
20260424T12Z_MSC_GDPS_SpecificHumidity_IsbL-0800_LatLon0.15_PT057H.grib2 2026-04-24 16:10 1.9M
20260424T12Z_MSC_GDPS_SpecificHumidity_IsbL-0850_LatLon0.15_PT057H.grib2 2026-04-24 16:10 1.9M
20260424T12Z_MSC_GDPS_SpecificHumidity_IsbL-0875_LatLon0.15_PT057H.grib2 2026-04-24 16:10 1.9M
20260424T12Z_MSC_GDPS_SpecificHumidity_IsbL-0900_LatLon0.15_PT057H.grib2 2026-04-24 16:10 1.9M
20260424T12Z_MSC_GDPS_SpecificHumidity_IsbL-0925_LatLon0.15_PT057H.grib2 2026-04-24 16:10 1.6M
20260424T12Z_MSC_GDPS_SpecificHumidity_IsbL-0950_LatLon0.15_PT057H.grib2 2026-04-24 16:10 1.5M
20260424T12Z_MSC_GDPS_SpecificHumidity_IsbL-0970_LatLon0.15_PT057H.grib2 2026-04-24 16:10 1.5M
20260424T12Z_MSC_GDPS_SpecificHumidity_IsbL-0985_LatLon0.15_PT057H.grib2 2026-04-24 16:10 1.5M
20260424T12Z_MSC_GDPS_SpecificHumidity_IsbL-1000_LatLon0.15_PT057H.grib2 2026-04-24 16:10 1.5M
20260424T12Z_MSC_GDPS_SpecificHumidity_IsbL-1015_LatLon0.15_PT057H.grib2 2026-04-24 16:10 1.4M
20260424T12Z_MSC_GDPS_SpecificHumidity_Sfc_LatLon0.15_PT057H.grib2 2026-04-24 16:10 634K
20260424T12Z_MSC_GDPS_Thickness_IsbL-0850to0700_LatLon0.15_PT057H.grib2 2026-04-24 16:10 467K
20260424T12Z_MSC_GDPS_Thickness_IsbL-1000to0500_LatLon0.15_PT057H.grib2 2026-04-24 16:10 371K
20260424T12Z_MSC_GDPS_Thickness_IsbL-1000to0850_LatLon0.15_PT057H.grib2 2026-04-24 16:10 489K
20260424T12Z_MSC_GDPS_TotalCloudCover_Sfc_LatLon0.15_PT057H.grib2 2026-04-24 16:10 834K
20260424T12Z_MSC_GDPS_TotalTotalsIndex_Sfc_LatLon0.15_PT057H.grib2 2026-04-24 16:10 6.2M
20260424T12Z_MSC_GDPS_UVIndex-ClearSky_Sfc_LatLon0.15_PT057H.grib2 2026-04-24 16:49 1.0M
20260424T12Z_MSC_GDPS_UVIndex_Sfc_LatLon0.15_PT057H.grib2 2026-04-24 16:49 1.5M
20260424T12Z_MSC_GDPS_UpwardLongwaveRadiationFlux_NTAtm_LatLon0.15_PT057H.grib2 2026-04-24 16:10 839K
20260424T12Z_MSC_GDPS_VerticalVelocity_IsbL-0200_LatLon0.15_PT057H.grib2 2026-04-24 16:10 920K
20260424T12Z_MSC_GDPS_VerticalVelocity_IsbL-0250_LatLon0.15_PT057H.grib2 2026-04-24 16:10 1.0M
20260424T12Z_MSC_GDPS_VerticalVelocity_IsbL-0500_LatLon0.15_PT057H.grib2 2026-04-24 16:10 1.3M
20260424T12Z_MSC_GDPS_VerticalVelocity_IsbL-0600_LatLon0.15_PT057H.grib2 2026-04-24 16:10 1.3M
20260424T12Z_MSC_GDPS_VerticalVelocity_IsbL-0700_LatLon0.15_PT057H.grib2 2026-04-24 16:10 1.4M
20260424T12Z_MSC_GDPS_VerticalVelocity_IsbL-0850_LatLon0.15_PT057H.grib2 2026-04-24 16:10 1.6M
20260424T12Z_MSC_GDPS_WindChill_Sfc_LatLon0.15_PT057H.grib2 2026-04-24 16:10 5.3M
20260424T12Z_MSC_GDPS_WindDir_AGL-10m_LatLon0.15_PT057H.grib2 2026-04-24 16:10 1.3M
20260424T12Z_MSC_GDPS_WindDir_AGL-120m_LatLon0.15_PT057H.grib2 2026-04-24 16:10 1.4M
20260424T12Z_MSC_GDPS_WindDir_AGL-40m_LatLon0.15_PT057H.grib2 2026-04-24 16:10 1.4M
20260424T12Z_MSC_GDPS_WindDir_AGL-80m_LatLon0.15_PT057H.grib2 2026-04-24 16:10 1.4M
20260424T12Z_MSC_GDPS_WindDir_IsbL-0001_LatLon0.15_PT057H.grib2 2026-04-24 16:10 664K
20260424T12Z_MSC_GDPS_WindDir_IsbL-0005_LatLon0.15_PT057H.grib2 2026-04-24 16:10 809K
20260424T12Z_MSC_GDPS_WindDir_IsbL-0010_LatLon0.15_PT057H.grib2 2026-04-24 16:10 853K
20260424T12Z_MSC_GDPS_WindDir_IsbL-0020_LatLon0.15_PT057H.grib2 2026-04-24 16:10 945K
20260424T12Z_MSC_GDPS_WindDir_IsbL-0030_LatLon0.15_PT057H.grib2 2026-04-24 16:10 931K
20260424T12Z_MSC_GDPS_WindDir_IsbL-0050_LatLon0.15_PT057H.grib2 2026-04-24 16:10 949K
20260424T12Z_MSC_GDPS_WindDir_IsbL-0100_LatLon0.15_PT057H.grib2 2026-04-24 16:10 1.0M
20260424T12Z_MSC_GDPS_WindDir_IsbL-0150_LatLon0.15_PT057H.grib2 2026-04-24 16:10 1.0M
20260424T12Z_MSC_GDPS_WindDir_IsbL-0175_LatLon0.15_PT057H.grib2 2026-04-24 16:10 1.1M
20260424T12Z_MSC_GDPS_WindDir_IsbL-0200_LatLon0.15_PT057H.grib2 2026-04-24 16:10 1.1M
20260424T12Z_MSC_GDPS_WindDir_IsbL-0225_LatLon0.15_PT057H.grib2 2026-04-24 16:10 1.1M
20260424T12Z_MSC_GDPS_WindDir_IsbL-0250_LatLon0.15_PT057H.grib2 2026-04-24 16:10 1.1M
20260424T12Z_MSC_GDPS_WindDir_IsbL-0275_LatLon0.15_PT057H.grib2 2026-04-24 16:10 1.2M
20260424T12Z_MSC_GDPS_WindDir_IsbL-0300_LatLon0.15_PT057H.grib2 2026-04-24 16:10 1.2M
20260424T12Z_MSC_GDPS_WindDir_IsbL-0350_LatLon0.15_PT057H.grib2 2026-04-24 16:10 1.2M
20260424T12Z_MSC_GDPS_WindDir_IsbL-0400_LatLon0.15_PT057H.grib2 2026-04-24 16:10 1.3M
20260424T12Z_MSC_GDPS_WindDir_IsbL-0450_LatLon0.15_PT057H.grib2 2026-04-24 16:10 1.3M
20260424T12Z_MSC_GDPS_WindDir_IsbL-0500_LatLon0.15_PT057H.grib2 2026-04-24 16:10 1.3M
20260424T12Z_MSC_GDPS_WindDir_IsbL-0550_LatLon0.15_PT057H.grib2 2026-04-24 16:10 1.4M
20260424T12Z_MSC_GDPS_WindDir_IsbL-0600_LatLon0.15_PT057H.grib2 2026-04-24 16:10 1.5M
20260424T12Z_MSC_GDPS_WindDir_IsbL-0650_LatLon0.15_PT057H.grib2 2026-04-24 16:10 1.6M
20260424T12Z_MSC_GDPS_WindDir_IsbL-0700_LatLon0.15_PT057H.grib2 2026-04-24 16:10 1.6M
20260424T12Z_MSC_GDPS_WindDir_IsbL-0750_LatLon0.15_PT057H.grib2 2026-04-24 16:10 1.7M
20260424T12Z_MSC_GDPS_WindDir_IsbL-0800_LatLon0.15_PT057H.grib2 2026-04-24 16:10 1.8M
20260424T12Z_MSC_GDPS_WindDir_IsbL-0850_LatLon0.15_PT057H.grib2 2026-04-24 16:10 1.9M
20260424T12Z_MSC_GDPS_WindDir_IsbL-0875_LatLon0.15_PT057H.grib2 2026-04-24 16:10 2.0M
20260424T12Z_MSC_GDPS_WindDir_IsbL-0900_LatLon0.15_PT057H.grib2 2026-04-24 16:10 2.0M
20260424T12Z_MSC_GDPS_WindDir_IsbL-0925_LatLon0.15_PT057H.grib2 2026-04-24 16:10 2.0M
20260424T12Z_MSC_GDPS_WindDir_IsbL-0950_LatLon0.15_PT057H.grib2 2026-04-24 16:10 2.0M
20260424T12Z_MSC_GDPS_WindDir_IsbL-0970_LatLon0.15_PT057H.grib2 2026-04-24 16:10 2.0M
20260424T12Z_MSC_GDPS_WindDir_IsbL-0985_LatLon0.15_PT057H.grib2 2026-04-24 16:10 2.1M
20260424T12Z_MSC_GDPS_WindDir_IsbL-1000_LatLon0.15_PT057H.grib2 2026-04-24 16:10 2.1M
20260424T12Z_MSC_GDPS_WindDir_IsbL-1015_LatLon0.15_PT057H.grib2 2026-04-24 16:10 2.1M
20260424T12Z_MSC_GDPS_WindGust-Max_AGL-10m_LatLon0.15_PT057H.grib2 2026-04-24 16:10 2.2M
20260424T12Z_MSC_GDPS_WindGust-Min_AGL-10m_LatLon0.15_PT057H.grib2 2026-04-24 16:10 2.1M
20260424T12Z_MSC_GDPS_WindGust_AGL-10m_LatLon0.15_PT057H.grib2 2026-04-24 16:10 2.1M
20260424T12Z_MSC_GDPS_WindSpeed_AGL-10m_LatLon0.15_PT057H.grib2 2026-04-24 16:10 1.1M
20260424T12Z_MSC_GDPS_WindSpeed_AGL-120m_LatLon0.15_PT057H.grib2 2026-04-24 16:10 1.3M
20260424T12Z_MSC_GDPS_WindSpeed_AGL-40m_LatLon0.15_PT057H.grib2 2026-04-24 16:10 1.3M
20260424T12Z_MSC_GDPS_WindSpeed_AGL-80m_LatLon0.15_PT057H.grib2 2026-04-24 16:10 1.3M
20260424T12Z_MSC_GDPS_WindSpeed_IsbL-0001_LatLon0.15_PT057H.grib2 2026-04-24 16:10 643K
20260424T12Z_MSC_GDPS_WindSpeed_IsbL-0005_LatLon0.15_PT057H.grib2 2026-04-24 16:10 612K
20260424T12Z_MSC_GDPS_WindSpeed_IsbL-0010_LatLon0.15_PT057H.grib2 2026-04-24 16:10 629K
20260424T12Z_MSC_GDPS_WindSpeed_IsbL-0020_LatLon0.15_PT057H.grib2 2026-04-24 16:10 861K
20260424T12Z_MSC_GDPS_WindSpeed_IsbL-0030_LatLon0.15_PT057H.grib2 2026-04-24 16:10 862K
20260424T12Z_MSC_GDPS_WindSpeed_IsbL-0050_LatLon0.15_PT057H.grib2 2026-04-24 16:10 1.0M
20260424T12Z_MSC_GDPS_WindSpeed_IsbL-0100_LatLon0.15_PT057H.grib2 2026-04-24 16:10 1.1M
20260424T12Z_MSC_GDPS_WindSpeed_IsbL-0150_LatLon0.15_PT057H.grib2 2026-04-24 16:10 1.0M
20260424T12Z_MSC_GDPS_WindSpeed_IsbL-0175_LatLon0.15_PT057H.grib2 2026-04-24 16:10 1.0M
20260424T12Z_MSC_GDPS_WindSpeed_IsbL-0200_LatLon0.15_PT057H.grib2 2026-04-24 16:10 1.1M
20260424T12Z_MSC_GDPS_WindSpeed_IsbL-0225_LatLon0.15_PT057H.grib2 2026-04-24 16:10 1.1M
20260424T12Z_MSC_GDPS_WindSpeed_IsbL-0250_LatLon0.15_PT057H.grib2 2026-04-24 16:10 1.1M
20260424T12Z_MSC_GDPS_WindSpeed_IsbL-0275_LatLon0.15_PT057H.grib2 2026-04-24 16:10 1.1M
20260424T12Z_MSC_GDPS_WindSpeed_IsbL-0300_LatLon0.15_PT057H.grib2 2026-04-24 16:10 1.1M
20260424T12Z_MSC_GDPS_WindSpeed_IsbL-0350_LatLon0.15_PT057H.grib2 2026-04-24 16:10 1.1M
20260424T12Z_MSC_GDPS_WindSpeed_IsbL-0400_LatLon0.15_PT057H.grib2 2026-04-24 16:10 1.1M
20260424T12Z_MSC_GDPS_WindSpeed_IsbL-0450_LatLon0.15_PT057H.grib2 2026-04-24 16:10 1.1M
20260424T12Z_MSC_GDPS_WindSpeed_IsbL-0500_LatLon0.15_PT057H.grib2 2026-04-24 16:10 1.1M
20260424T12Z_MSC_GDPS_WindSpeed_IsbL-0550_LatLon0.15_PT057H.grib2 2026-04-24 16:10 1.1M
20260424T12Z_MSC_GDPS_WindSpeed_IsbL-0600_LatLon0.15_PT057H.grib2 2026-04-24 16:10 1.1M
20260424T12Z_MSC_GDPS_WindSpeed_IsbL-0650_LatLon0.15_PT057H.grib2 2026-04-24 16:10 1.4M
20260424T12Z_MSC_GDPS_WindSpeed_IsbL-0700_LatLon0.15_PT057H.grib2 2026-04-24 16:10 1.5M
20260424T12Z_MSC_GDPS_WindSpeed_IsbL-0750_LatLon0.15_PT057H.grib2 2026-04-24 16:10 1.7M
20260424T12Z_MSC_GDPS_WindSpeed_IsbL-0800_LatLon0.15_PT057H.grib2 2026-04-24 16:10 1.8M
20260424T12Z_MSC_GDPS_WindSpeed_IsbL-0850_LatLon0.15_PT057H.grib2 2026-04-24 16:10 1.9M
20260424T12Z_MSC_GDPS_WindSpeed_IsbL-0875_LatLon0.15_PT057H.grib2 2026-04-24 16:10 1.8M
20260424T12Z_MSC_GDPS_WindSpeed_IsbL-0900_LatLon0.15_PT057H.grib2 2026-04-24 16:10 1.8M
20260424T12Z_MSC_GDPS_WindSpeed_IsbL-0925_LatLon0.15_PT057H.grib2 2026-04-24 16:10 1.8M
20260424T12Z_MSC_GDPS_WindSpeed_IsbL-0950_LatLon0.15_PT057H.grib2 2026-04-24 16:10 1.8M
20260424T12Z_MSC_GDPS_WindSpeed_IsbL-0970_LatLon0.15_PT057H.grib2 2026-04-24 16:10 1.8M
20260424T12Z_MSC_GDPS_WindSpeed_IsbL-0985_LatLon0.15_PT057H.grib2 2026-04-24 16:10 1.8M
20260424T12Z_MSC_GDPS_WindSpeed_IsbL-1000_LatLon0.15_PT057H.grib2 2026-04-24 16:10 1.9M
20260424T12Z_MSC_GDPS_WindSpeed_IsbL-1015_LatLon0.15_PT057H.grib2 2026-04-24 16:10 1.8M
20260424T12Z_MSC_GDPS_WindU_AGL-10m_LatLon0.15_PT057H.grib2 2026-04-24 16:10 1.3M
20260424T12Z_MSC_GDPS_WindU_AGL-120m_LatLon0.15_PT057H.grib2 2026-04-24 16:10 1.0M
20260424T12Z_MSC_GDPS_WindU_AGL-40m_LatLon0.15_PT057H.grib2 2026-04-24 16:10 1.0M
20260424T12Z_MSC_GDPS_WindU_AGL-80m_LatLon0.15_PT057H.grib2 2026-04-24 16:10 1.0M
20260424T12Z_MSC_GDPS_WindU_IsbL-0001_LatLon0.15_PT057H.grib2 2026-04-24 16:10 501K
20260424T12Z_MSC_GDPS_WindU_IsbL-0005_LatLon0.15_PT057H.grib2 2026-04-24 16:10 693K
20260424T12Z_MSC_GDPS_WindU_IsbL-0010_LatLon0.15_PT057H.grib2 2026-04-24 16:10 704K
20260424T12Z_MSC_GDPS_WindU_IsbL-0020_LatLon0.15_PT057H.grib2 2026-04-24 16:10 658K
20260424T12Z_MSC_GDPS_WindU_IsbL-0030_LatLon0.15_PT057H.grib2 2026-04-24 16:10 740K
20260424T12Z_MSC_GDPS_WindU_IsbL-0050_LatLon0.15_PT057H.grib2 2026-04-24 16:10 699K
20260424T12Z_MSC_GDPS_WindU_IsbL-0100_LatLon0.15_PT057H.grib2 2026-04-24 16:10 913K
20260424T12Z_MSC_GDPS_WindU_IsbL-0150_LatLon0.15_PT057H.grib2 2026-04-24 16:10 1.0M
20260424T12Z_MSC_GDPS_WindU_IsbL-0175_LatLon0.15_PT057H.grib2 2026-04-24 16:10 1.0M
20260424T12Z_MSC_GDPS_WindU_IsbL-0200_LatLon0.15_PT057H.grib2 2026-04-24 16:10 840K
20260424T12Z_MSC_GDPS_WindU_IsbL-0225_LatLon0.15_PT057H.grib2 2026-04-24 16:10 852K
20260424T12Z_MSC_GDPS_WindU_IsbL-0250_LatLon0.15_PT057H.grib2 2026-04-24 16:10 855K
20260424T12Z_MSC_GDPS_WindU_IsbL-0275_LatLon0.15_PT057H.grib2 2026-04-24 16:10 881K
20260424T12Z_MSC_GDPS_WindU_IsbL-0300_LatLon0.15_PT057H.grib2 2026-04-24 16:10 874K
20260424T12Z_MSC_GDPS_WindU_IsbL-0350_LatLon0.15_PT057H.grib2 2026-04-24 16:10 889K
20260424T12Z_MSC_GDPS_WindU_IsbL-0400_LatLon0.15_PT057H.grib2 2026-04-24 16:10 890K
20260424T12Z_MSC_GDPS_WindU_IsbL-0450_LatLon0.15_PT057H.grib2 2026-04-24 16:10 891K
20260424T12Z_MSC_GDPS_WindU_IsbL-0500_LatLon0.15_PT057H.grib2 2026-04-24 16:10 1.1M
20260424T12Z_MSC_GDPS_WindU_IsbL-0550_LatLon0.15_PT057H.grib2 2026-04-24 16:10 1.1M
20260424T12Z_MSC_GDPS_WindU_IsbL-0600_LatLon0.15_PT057H.grib2 2026-04-24 16:10 1.1M
20260424T12Z_MSC_GDPS_WindU_IsbL-0650_LatLon0.15_PT057H.grib2 2026-04-24 16:10 1.2M
20260424T12Z_MSC_GDPS_WindU_IsbL-0700_LatLon0.15_PT057H.grib2 2026-04-24 16:10 1.2M
20260424T12Z_MSC_GDPS_WindU_IsbL-0750_LatLon0.15_PT057H.grib2 2026-04-24 16:10 1.3M
20260424T12Z_MSC_GDPS_WindU_IsbL-0800_LatLon0.15_PT057H.grib2 2026-04-24 16:10 1.4M
20260424T12Z_MSC_GDPS_WindU_IsbL-0850_LatLon0.15_PT057H.grib2 2026-04-24 16:10 1.4M
20260424T12Z_MSC_GDPS_WindU_IsbL-0875_LatLon0.15_PT057H.grib2 2026-04-24 16:10 1.5M
20260424T12Z_MSC_GDPS_WindU_IsbL-0900_LatLon0.15_PT057H.grib2 2026-04-24 16:10 1.5M
20260424T12Z_MSC_GDPS_WindU_IsbL-0925_LatLon0.15_PT057H.grib2 2026-04-24 16:10 1.5M
20260424T12Z_MSC_GDPS_WindU_IsbL-0950_LatLon0.15_PT057H.grib2 2026-04-24 16:10 1.5M
20260424T12Z_MSC_GDPS_WindU_IsbL-0970_LatLon0.15_PT057H.grib2 2026-04-24 16:10 1.4M
20260424T12Z_MSC_GDPS_WindU_IsbL-0985_LatLon0.15_PT057H.grib2 2026-04-24 16:10 1.4M
20260424T12Z_MSC_GDPS_WindU_IsbL-1000_LatLon0.15_PT057H.grib2 2026-04-24 16:10 1.4M
20260424T12Z_MSC_GDPS_WindU_IsbL-1015_LatLon0.15_PT057H.grib2 2026-04-24 16:10 1.4M
20260424T12Z_MSC_GDPS_WindV_AGL-10m_LatLon0.15_PT057H.grib2 2026-04-24 16:10 1.3M
20260424T12Z_MSC_GDPS_WindV_AGL-120m_LatLon0.15_PT057H.grib2 2026-04-24 16:10 1.0M
20260424T12Z_MSC_GDPS_WindV_AGL-40m_LatLon0.15_PT057H.grib2 2026-04-24 16:10 1.0M
20260424T12Z_MSC_GDPS_WindV_AGL-80m_LatLon0.15_PT057H.grib2 2026-04-24 16:10 1.0M
20260424T12Z_MSC_GDPS_WindV_IsbL-0001_LatLon0.15_PT057H.grib2 2026-04-24 16:10 553K
20260424T12Z_MSC_GDPS_WindV_IsbL-0005_LatLon0.15_PT057H.grib2 2026-04-24 16:10 783K
20260424T12Z_MSC_GDPS_WindV_IsbL-0010_LatLon0.15_PT057H.grib2 2026-04-24 16:10 884K
20260424T12Z_MSC_GDPS_WindV_IsbL-0020_LatLon0.15_PT057H.grib2 2026-04-24 16:10 934K
20260424T12Z_MSC_GDPS_WindV_IsbL-0030_LatLon0.15_PT057H.grib2 2026-04-24 16:10 850K
20260424T12Z_MSC_GDPS_WindV_IsbL-0050_LatLon0.15_PT057H.grib2 2026-04-24 16:10 904K
20260424T12Z_MSC_GDPS_WindV_IsbL-0100_LatLon0.15_PT057H.grib2 2026-04-24 16:10 1.0M
20260424T12Z_MSC_GDPS_WindV_IsbL-0150_LatLon0.15_PT057H.grib2 2026-04-24 16:10 1.0M
20260424T12Z_MSC_GDPS_WindV_IsbL-0175_LatLon0.15_PT057H.grib2 2026-04-24 16:10 1.0M
20260424T12Z_MSC_GDPS_WindV_IsbL-0200_LatLon0.15_PT057H.grib2 2026-04-24 16:10 1.0M
20260424T12Z_MSC_GDPS_WindV_IsbL-0225_LatLon0.15_PT057H.grib2 2026-04-24 16:10 847K
20260424T12Z_MSC_GDPS_WindV_IsbL-0250_LatLon0.15_PT057H.grib2 2026-04-24 16:10 848K
20260424T12Z_MSC_GDPS_WindV_IsbL-0275_LatLon0.15_PT057H.grib2 2026-04-24 16:10 875K
20260424T12Z_MSC_GDPS_WindV_IsbL-0300_LatLon0.15_PT057H.grib2 2026-04-24 16:10 866K
20260424T12Z_MSC_GDPS_WindV_IsbL-0350_LatLon0.15_PT057H.grib2 2026-04-24 16:10 879K
20260424T12Z_MSC_GDPS_WindV_IsbL-0400_LatLon0.15_PT057H.grib2 2026-04-24 16:10 879K
20260424T12Z_MSC_GDPS_WindV_IsbL-0450_LatLon0.15_PT057H.grib2 2026-04-24 16:10 1.1M
20260424T12Z_MSC_GDPS_WindV_IsbL-0500_LatLon0.15_PT057H.grib2 2026-04-24 16:10 1.1M
20260424T12Z_MSC_GDPS_WindV_IsbL-0550_LatLon0.15_PT057H.grib2 2026-04-24 16:10 1.1M
20260424T12Z_MSC_GDPS_WindV_IsbL-0600_LatLon0.15_PT057H.grib2 2026-04-24 16:10 1.1M
20260424T12Z_MSC_GDPS_WindV_IsbL-0650_LatLon0.15_PT057H.grib2 2026-04-24 16:10 1.2M
20260424T12Z_MSC_GDPS_WindV_IsbL-0700_LatLon0.15_PT057H.grib2 2026-04-24 16:10 1.2M
20260424T12Z_MSC_GDPS_WindV_IsbL-0750_LatLon0.15_PT057H.grib2 2026-04-24 16:10 1.3M
20260424T12Z_MSC_GDPS_WindV_IsbL-0800_LatLon0.15_PT057H.grib2 2026-04-24 16:10 1.4M
20260424T12Z_MSC_GDPS_WindV_IsbL-0850_LatLon0.15_PT057H.grib2 2026-04-24 16:10 1.4M
20260424T12Z_MSC_GDPS_WindV_IsbL-0875_LatLon0.15_PT057H.grib2 2026-04-24 16:10 1.5M
20260424T12Z_MSC_GDPS_WindV_IsbL-0900_LatLon0.15_PT057H.grib2 2026-04-24 16:10 1.5M
20260424T12Z_MSC_GDPS_WindV_IsbL-0925_LatLon0.15_PT057H.grib2 2026-04-24 16:10 1.5M
20260424T12Z_MSC_GDPS_WindV_IsbL-0950_LatLon0.15_PT057H.grib2 2026-04-24 16:10 1.4M
20260424T12Z_MSC_GDPS_WindV_IsbL-0970_LatLon0.15_PT057H.grib2 2026-04-24 16:10 1.4M
20260424T12Z_MSC_GDPS_WindV_IsbL-0985_LatLon0.15_PT057H.grib2 2026-04-24 16:10 1.4M
20260424T12Z_MSC_GDPS_WindV_IsbL-1000_LatLon0.15_PT057H.grib2 2026-04-24 16:10 1.4M
20260424T12Z_MSC_GDPS_WindV_IsbL-1015_LatLon0.15_PT057H.grib2 2026-04-24 16:10 1.4M